Location: Doughton Park
(36.4224°N, 81.1835°W)
Time: 19:46:53
(UTC-04:00)

ISS - All Passes

Search period start: 18 September 2014 00:00
Search period end: 28 September 2014 00:00
Orbit: 414 x 417 km, 51.6° (Epoch: 18 September)

Date Brightness Start Highest point End Pass type
(mag) Time Alt. Az. Time Alt. Az. Time Alt. Az.
18 Sep - 03:14:11 10° SSW 03:17:17 37° SE 03:20:23 10° ENE night (unlit)
18 Sep - 04:51:23 10° W 04:54:04 22° NNW 04:56:46 10° NNE visible
18 Sep - 09:45:18 10° NNW 09:47:51 20° NNE 09:50:23 10° E daylight
18 Sep - 11:21:31 10° WNW 11:24:42 44° SW 11:27:53 10° SSE daylight
19 Sep - 02:26:09 10° S 02:28:38 20° SE 02:31:08 10° E night (unlit)
19 Sep - 04:02:05 10° WSW 04:05:10 35° NW 04:08:17 10° NNE visible
19 Sep - 08:57:00 10° N 08:58:51 14° NNE 09:00:42 10° ENE daylight
19 Sep - 10:32:38 10° NW 10:35:59 89° SW 10:39:17 10° SE daylight
20 Sep - 01:39:21 10° SE 01:40:01 11° SE 01:40:42 10° ESE night (unlit)
20 Sep - 03:13:01 10° WSW 03:16:19 64° NW 03:19:37 10° NE night (unlit)
20 Sep - 04:52:15 10° NW 04:53:34 12° NNW 04:54:53 10° N visible
20 Sep - 08:09:14 10° N 08:09:46 10° NNE 08:10:17 10° NNE daylight
20 Sep - 09:43:54 10° NW 09:47:08 48° NE 09:50:22 10° ESE daylight
20 Sep - 11:21:42 10° W 11:23:32 14° SW 11:25:22 10° SSW daylight
21 Sep - 02:24:12 10° SW 02:27:29 65° SE 02:30:47 10° NE night (unlit)
21 Sep - 04:02:16 10° WNW 04:04:29 16° NNW 04:06:42 10° NNE visible
21 Sep - 08:55:16 10° NNW 08:58:12 28° NNE 09:01:08 10° E daylight
21 Sep - 10:32:01 10° WNW 10:34:51 26° SW 10:37:40 10° S daylight
22 Sep - 01:35:41 10° SSW 01:38:41 32° SE 01:41:43 10° ENE night (unlit)
22 Sep - 03:12:38 10° W 03:15:25 24° NNW 03:18:13 10° NNE night (unlit)
22 Sep - 08:06:44 10° NNW 08:09:10 19° NNE 08:11:35 10° ENE daylight
22 Sep - 09:42:49 10° WNW 09:46:04 51° SW 09:49:17 10° SSE daylight
23 Sep - 00:47:38 10° S 00:49:55 17° SE 00:52:13 10° E night (unlit)
23 Sep - 02:23:15 10° WSW 02:26:24 39° NW 02:29:34 10° NE night (unlit)
23 Sep - 07:18:21 10° N 07:20:01 13° NNE 07:21:41 10° NE daylight
23 Sep - 08:53:51 10° NW 08:57:11 80° NE 09:00:30 10° SE daylight
24 Sep - 01:34:06 10° SW 01:37:24 74° NW 01:40:44 10° NE night (unlit)
24 Sep - 03:13:03 10° NW 03:14:36 13° NNW 03:16:09 10° N night (unlit)
24 Sep - 08:05:00 10° NW 08:08:11 42° NE 08:11:22 10° ESE daylight
24 Sep - 09:42:30 10° W 09:44:38 16° SW 09:46:45 10° S daylight
25 Sep - 00:45:12 10° SW 00:48:27 56° SE 00:51:44 10° ENE night (unlit)
25 Sep - 02:23:02 10° WNW 02:25:23 18° NNW 02:27:45 10° NNE night (unlit)
25 Sep - 07:16:15 10° NNW 07:19:06 25° NNE 07:21:56 10° E daylight
25 Sep - 08:52:50 10° WNW 08:55:47 30° SW 08:58:44 10° SSE daylight
25 Sep - 23:56:38 10° SSW 23:59:32 28° SE 00:02:27 10° ENE night (unlit)
26 Sep - 01:33:19 10° W 01:36:12 27° NNW 01:39:06 10° NNE night (unlit)
26 Sep - 06:27:36 10° NNW 06:29:54 17° NNE 06:32:11 10° ENE visible
26 Sep - 08:03:34 10° NW 08:06:51 60° SW 08:10:07 10° SE daylight
26 Sep - 23:08:38 10° SSE 23:10:39 15° SE 23:12:39 10° E night (unlit)
27 Sep - 00:43:51 10° WSW 00:47:03 45° NW 00:50:16 10° NE night (unlit)
27 Sep - 05:39:10 10° N 05:40:36 12° NNE 05:42:02 10° NE visible
27 Sep - 07:14:29 10° NW 07:17:49 69° NE 07:21:07 10° SE daylight
27 Sep - 23:54:37 10° SW 23:57:56 86° NW 00:00:00 22° NE night (unlit)
